This demonstration page uses our WeatherBlox Daily Observations layout. Learn more.

Left ArrowRight Arrow

Hourly Observations for April 15, 2017

Temp ( °F °C ) Dew Point ( °F °C ) Humidity (%) Winds ( mph kmh ) Pressure ( in mb ) Visibility ( mi km ) Precip ( " mm )
12:53 am 00:53 Clear 41 5 27 -2.8 57 57 W 14 22 29.87 1011 10 16 0.00 0.00
1:53 am 01:53 Clear 38 3.3 27 -2.8 65 65 S 5 7 29.88 1012 10 16 0.00 0.00
2:53 am 02:53 Clear 39 3.9 26 -3.3 60 60 SW 9 15 29.90 1013 10 16 0.00 0.00
3:53 am 03:53 Clear 38 3.3 27 -2.8 65 65 SW 12 19 29.90 1013 10 16 0.00 0.00
4:53 am 04:53 Clear 39 3.9 27 -2.8 62 62 SW 14 22 29.91 1013 10 16 0.00 0.00
5:53 am 05:53 Partly Cloudy 40 4.4 26 -3.3 58 58 SW 14 22 29.91 1013 10 16 0.00 0.00
6:53 am 06:53 Mostly Cloudy 40 4.4 27 -2.8 60 60 SW 15 24 29.93 1014 10 16 0.00 0.00
7:53 am 07:53 Cloudy 41 5 27 -2.8 57 57 SW 17 28 29.95 1014 10 16 0.00 0.00
8:53 am 08:53 Cloudy 43 6.1 27 -2.8 53 53 SW 21 33 29.95 1014 10 16 0.00 0.00
9:53 am 09:53 Cloudy 46 7.8 25 -3.9 44 44 WSW 25 41 29.93 1014 10 16 0.00 0.00
10:53 am 10:53 Cloudy 47 8.3 24 -4.4 41 41 WSW 26 43 29.96 1014 10 16 0.00 0.00
11:53 am 11:53 Cloudy 48 8.9 22 -5.6 36 36 W 23 37 29.95 1014 10 16 0.00 0.00
12:53 pm 12:53 Partly Cloudy 51 10.6 18 -7.8 27 27 W 26 43 29.93 1013 10 16 0.00 0.00
1:53 pm 13:53 Mostly Cloudy 54 12.2 19 -7.2 25 25 W 30 48 29.92 1013 10 16 0.00 0.00
2:53 pm 14:53 Mostly Cloudy 54 12.2 17 -8.3 23 23 W 29 46 29.91 1013 10 16 0.00 0.00
3:53 pm 15:53 Mostly Cloudy 52 11.1 17 -8.3 25 25 W 30 48 29.91 1013 10 16 0.00 0.00
4:53 pm 16:53 Mostly Sunny 51 10.6 21 -6.1 31 31 W 28 44 29.93 1014 10 16 0.00 0.00
5:53 pm 17:53 Sunny 52 11.1 21 -6.1 30 30 W 25 41 29.93 1014 10 16 0.00 0.00
6:53 pm 18:53 Mostly Cloudy 49 9.4 24 -4.4 38 38 W 12 19 29.95 1014 10 16 0.00 0.00
7:15 pm 19:15 Cloudy 47 8.3 28 -2.2 48 48 NNW 10 17 29.97 1015 10 16 0.00 0.00
7:53 pm 19:53 Cloudy 46 7.8 28 -2.2 50 50 WNW 5 7 29.97 1015 10 16 0.00 0.00
8:53 pm 20:53 Cloudy 46 7.8 22 -5.6 38 38 W 23 37 29.99 1016 10 16 0.00 0.00
9:53 pm 21:53 Cloudy 42 5.6 29 -1.7 60 60 W 9 15 30.03 1017 10 16 0.00 0.00
10:53 pm 22:53 Cloudy 40 4.4 30 -1.1 68 68 NW 12 19 30.05 1018 10 16 0.00 0.00
11:53 pm 23:53 Cloudy 35 1.7 29 -1.7 78 78 NW 3 6 30.10 1019 10 16 0.00 0.00

Powered by AerisWeather